This is the latest recevied weather packets stored in our database for station/object KD9JOU-13. If no packets are shown the sender has not sent any weather packets the latest 1 day(s).
| Time | Temp. | Humidity | Pressure | Rain* | Wind** | Luminosity | Snow |
|---|---|---|---|---|---|---|---|
| 1778043812 | 9.44° C | 95% | 1011.9 hPa | - | 0 m/s | - | - |
| 1778043511 | 9.44° C | 95% | 1011.9 hPa | - | 0.89 m/s, 334° | - | - |
| 1778043211 | 9.44° C | 95% | 1011.7 hPa | - | 0.89 m/s, 319° | - | - |
| 1778042911 | 9.44° C | 95% | 1011.3 hPa | - | 0.45 m/s, 303° | - | - |
| 1778042612 | 9.44° C | 95% | 1011.1 hPa | - | 0 m/s | - | - |
| 1778042023 | 9.44° C | 95% | 1011.1 hPa | - | 0.89 m/s, 327° | - | - |
| 1778041711 | 9.44° C | 95% | 1011.3 hPa | - | 0.45 m/s, 330° | - | - |
| 1778041412 | 9.44° C | 95% | 1011 hPa | - | 0.45 m/s, 319° | - | - |
| 1778041111 | 9.44° C | 95% | 1011.2 hPa | - | 0 m/s | - | - |
| 1778040811 | 9.44° C | 95% | 1011.1 hPa | - | 0 m/s | - | - |
| 1778040512 | 9.44° C | 95% | 1011 hPa | - | 0.45 m/s, 324° | - | - |
| 1778040211 | 9.44° C | 95% | 1011.3 hPa | - | 0.45 m/s, 345° | - | - |
| 1778039911 | 9.44° C | 95% | 1011.2 hPa | - | 1.79 m/s, 302° | - | - |
| 1778039611 | 9.44° C | 95% | 1011.3 hPa | - | 0.89 m/s, 299° | - | - |
| 1778039312 | 9.44° C | 95% | 1011.4 hPa | - | 0.45 m/s, 314° | - | - |
| 1778039011 | 9.44° C | 95% | 1011.3 hPa | - | 0.45 m/s, 313° | - | - |
| 1778038711 | 9.44° C | 95% | 1011 hPa | - | 0.89 m/s, 296° | - | - |
| 1778038411 | 9.44° C | 95% | 1011.1 hPa | - | 0.89 m/s, 312° | - | - |
| 1778038112 | 9.44° C | 95% | 1010.5 hPa | - | 0.89 m/s, 303° | - | - |
| 1778037811 | 9.44° C | 95% | 1010.4 hPa | - | 0.45 m/s, 296° | - | - |
| 1778037511 | 9.44° C | 95% | 1010.3 hPa | - | 0.45 m/s, 343° | - | - |
| 1778037211 | 9.44° C | 95% | 1010.6 hPa | - | 0 m/s | - | - |
| 1778036911 | 9.44° C | 95% | 1010.6 hPa | - | 0.45 m/s, 301° | - | - |
| 1778036611 | 9.44° C | 95% | 1010.4 hPa | - | 0.89 m/s, 309° | - | - |
| 1778036311 | 9.44° C | 95% | 1010.3 hPa | - | 0 m/s | - | - |
* Rain since midnight (hover to see other rain measurements)
** Current wind speed in m/s (hover to see current wind gust speed)